Weather History for Hamilton, OH

Change the Weather History Date:

Friday, October 11, 2013

  Actual Average (KCVG) Record (KCVG)
Temperature  
Mean Temperature 60 °F 57 °F  
Max Temperature 79 °F 68 °F 88 °F (1963)
Min Temperature 42 °F 47 °F 25 °F (1964)
Degree Days  
Heating Degree Days 5 8  
Month to date heating degree days 77  
Since 1 July heating degree days 135  
Cooling Degree Days 0 1  
Month to date cooling degree days 13  
Year to date cooling degree days 1118  
Growing Degree Days 10 (Base 50)    
Moisture  
Dew Point 48 °F    
Average Humidity 76    
Maximum Humidity 100    
Minimum Humidity 38    
Precipitation  
Precipitation 0.00 in 0.11 in 0.81 in (1919)
Month to date precipitation 1.15  
Year to date precipitation 33.57  
Snow  
Snow 0.00 in 0.10 in 0.00 in ()
Month to date snowfall 0.1  
Since 1 July snowfall 0.1  
Since 1 September snowfall 0.1  
Snow Depth -    
Sea Level Pressure  
Sea Level Pressure 30.08 in    
Wind  
Wind Speed 0 mph (ENE)    
Max Wind Speed 5 mph    
Max Gust Speed -    
Visibility 9 miles    
Events      
T = Trace of Precipitation, MM = Missing Value Source: NWS Daily Summary

Daily Weather History Graph

Daily Weather History Graph

Search for Another Location

Airport:

Trip Planner

Search our weather history database for the weather conditions in past years. The results will help you decide how hot, cold, wet, or windy it might be!

Date:

Astronomy

Oct. 11, 2013 Rise Set
Actual Time 7:44 AM EDT 7:04 PM EDT
Civil Twilight 7:17 AM EDT 7:31 PM EDT
Nautical Twilight 6:46 AM EDT 8:02 PM EDT
Astronomical Twilight 6:15 AM EDT 8:33 PM EDT
Moon 2:24 PM EDT (10/11) No Moon Set
Length of Visible Light 12h 14m
Length of Day
11h 20m
Waxing Crescent, 47% of the Moon is Illuminated
Oct 11
Waxing Crescent
Oct 11
First Quarter
Oct 18
Full
Oct 26
Last Quarter
Nov 3
New

Hourly Weather History & Observations

Time (EDT) Temp. Dew Point Humidity Pressure Visibility Wind Dir Wind Speed Gust Speed Precip Events Conditions
12:53 AM 46.9 °F 45.0 °F 93% 30.10 in 10.0 mi Calm Calm - N/A   Clear
1:53 AM 46.0 °F 44.1 °F 93% 30.09 in 8.0 mi Calm Calm - N/A   Clear
2:53 AM 45.0 °F 44.1 °F 97% 30.09 in 6.0 mi Calm Calm - N/A   Clear
3:53 AM 44.1 °F 43.0 °F 96% 30.09 in 10.0 mi Calm Calm - N/A   Clear
4:53 AM 44.1 °F 42.1 °F 93% 30.09 in 6.0 mi Calm Calm - N/A   Clear
5:53 AM 44.1 °F 42.1 °F 93% 30.10 in 9.0 mi Calm Calm - N/A   Clear
6:53 AM 44.1 °F 43.0 °F 96% 30.11 in 9.0 mi Calm Calm - N/A   Clear
7:53 AM 43.0 °F 41.0 °F 93% 30.12 in 2.5 mi Calm Calm - N/A   Clear
8:05 AM 42.8 °F 42.8 °F 100% 30.12 in 4.0 mi Calm Calm - N/A   Clear
8:53 AM 50.0 °F 46.9 °F 89% 30.14 in 10.0 mi Calm Calm - N/A   Clear
9:53 AM 55.9 °F 50.0 °F 80% 30.14 in 10.0 mi Calm Calm - N/A   Clear
10:53 AM 64.0 °F 52.0 °F 65% 30.13 in 10.0 mi Calm Calm - N/A   Clear
11:53 AM 69.1 °F 52.0 °F 54% 30.12 in 10.0 mi Calm Calm - N/A   Clear
12:53 PM 73.0 °F 48.9 °F 42% 30.10 in 10.0 mi Calm Calm - N/A   Clear
1:53 PM 75.9 °F 48.9 °F 38% 30.07 in 10.0 mi Calm Calm - N/A   Clear
2:53 PM 77.0 °F 51.1 °F 40% 30.06 in 10.0 mi Calm Calm - N/A   Clear
3:53 PM 78.1 °F 52.0 °F 40% 30.04 in 10.0 mi ENE 4.6 mph - N/A   Clear
4:53 PM 78.1 °F 52.0 °F 40% 30.04 in 10.0 mi Calm Calm - N/A   Clear
5:53 PM 77.0 °F 51.1 °F 40% 30.04 in 10.0 mi Calm Calm - N/A   Clear
6:53 PM 66.9 °F 57.0 °F 70% 30.04 in 10.0 mi Calm Calm - N/A   Clear
7:53 PM 60.1 °F 54.0 °F 80% 30.05 in 10.0 mi Calm Calm - N/A   Clear
8:53 PM 55.9 °F 53.1 °F 90% 30.06 in 10.0 mi Calm Calm - N/A   Clear
9:53 PM 54.0 °F 52.0 °F 93% 30.06 in 10.0 mi Calm Calm - N/A   Clear
10:53 PM 53.1 °F 51.1 °F 93% 30.06 in 10.0 mi Calm Calm - N/A   Clear
11:53 PM 51.1 °F 48.9 °F 92% 30.05 in 8.0 mi Calm Calm - N/A   Clear